Regional Weather Roundup
Issued by NWS Upton, NY

Current Version | Previous Version | Text Only | Print | Product List | Glossary On
Versions: 1 2 3 4 5 6 7 8 9 10 11 12 13 14 15 16 17 18 19 20 21 22 23 24 25 26 27 28 29 30 31 32 33 34 35 36 37 38 39 40 41 42 43 44 45 46 47 48 49 50
000 ASUS41 KOKX 271305 RWROKX REGIONAL WEATHER ROUNDUP NATIONAL WEATHER SERVICE NEW YORK NY 800 AM EST SAT DEC 27 2014 NOTE: "FAIR" INDICATES FEW OR NO CLOUDS BELOW 12,000 FEET WITH NO SIGNIFICANT WEATHER AND/OR OBSTRUCTIONS TO VISIBILITY. NYZ071-072-176-178-NJZ106-104-271400- NEW YORK CITY METRO AREA CITY SKY/WX TMP DP RH WIND PRES REMARKS CENTRAL PARK PTCLDY 45 29 53 W6 30.27R LAGUARDIA APRT MOCLDY 44 32 62 CALM 30.25R KENNEDY INTL MOCLDY 42 32 67 W5 30.26S NEWARK/LIBERTY MOCLDY 36 30 79 SW3 30.26R BRNX BOT. GARD N/A 43 32 65 W6 30.25F TETERBORO PTCLDY 32 30 92 CALM 30.25R $$ NYZ177-179-078>081-271400- LONG ISLAND NEW YORK CITY SKY/WX TMP DP RH WIND PRES REMARKS FARMINGDALE MOCLDY 37 31 78 CALM 30.25R ISLIP MOCLDY 34 30 85 CALM 30.23R SHIRLEY MOCLDY 33 29 85 CALM 30.26R WESTHAMPTON MOCLDY 27 23 85 CALM 30.27R MONTAUK POINT N/A 43 36 76 W5 30.26R $$ NYZ052-065-067-271400- HUDSON VALLEY CITY SKY/WX TMP DP RH WIND PRES REMARKS WHITE PLAINS MOCLDY 36 30 79 NW7 30.23R WCI 30 NEWBURGH PTCLDY 36 30 80 W12 30.23S WCI 27 MONTGOMERY PTCLDY 32 28 85 S5 30.22S WCI 27 POUGHKEEPSIE PTCLDY 29 26 89 CALM 30.23S ALBANY CLOUDY 33 29 85 CALM 30.22R $$ NJZ001-105-106-008-010-013-015-019>022-104-271400- NEW JERSEY CITY SKY/WX TMP DP RH WIND PRES REMARKS NEWARK/LIBERTY MOCLDY 36 30 79 SW3 30.26R TETERBORO PTCLDY 32 30 92 CALM 30.25R CALDWELL PTCLDY 31 29 92 CALM 30.26R MORRISTOWN CLEAR 30 28 93 CALM 30.26R SOMERVILLE FAIR 28 25 88 CALM 30.25R SUSSEX PTCLDY 27 25 92 CALM 30.24R FOG ANDOVER NOT AVBL TRENTON PTCLDY 36 29 75 NW5 30.25S WCI 32 MILLVILLE PTCLDY 28 26 92 CALM 30.29R ATLANTIC CITY PTCLDY 33 32 96 SW3 30.29R WRIGHTSTOWN MOCLDY 31 30 95 CALM 30.25R TOMS RIVER CLEAR 30 28 93 CALM 30.26R BELMAR PTCLDY 37 27 65 W5 30.26R WCI 34 $$ PAZ047>061-062-071-271400- EASTERN PENNSYLVANIA CITY SKY/WX TMP DP RH WIND PRES REMARKS PHILADELPHIA MOCLDY 35 32 88 SW3 30.28R ALLENTOWN CLEAR 28 25 88 NW5 30.25S FOG WCI 23 SCRANTON CLEAR 31 27 85 S8 30.22R WCI 23 $$ CTZ002-004>006-009-010-012-RIZ004-006-007-MAZ004-011-015-271400- SOUTHERN NEW ENGLAND IN CT CITY SKY/WX TMP DP RH WIND PRES REMARKS BRADLEY INTL PTCLDY 30 26 85 CALM 30.22R HARTFORD PTCLDY 30 28 92 CALM 30.24R DANBURY PTCLDY 29 25 85 CALM 30.24R WTRBRY/OXFORD CLEAR 34 23 64 CALM 30.22R BRIDGEPORT PTCLDY 37 32 82 CALM 30.24S MERIDEN CLEAR 28 25 88 CALM 30.24R FOG NEW HAVEN PTCLDY 40 33 76 CALM 30.24R CHESTER FAIR 36 30 80 CALM 30.24R GROTON PTCLDY 28 27 96 CALM 30.24R WILLIMANTIC PTCLDY 25 21 85 CALM 30.24R IN RI CITY SKY/WX TMP DP RH WIND PRES REMARKS PROVIDENCE PTCLDY 35 28 75 W7 30.22R WCI 29 BLOCK ISLAND CLEAR 43 32 65 W7 30.23R WESTERLY CLEAR 30 28 92 CALM 30.24R IN MA CITY SKY/WX TMP DP RH WIND PRES REMARKS BOSTON PTCLDY 41 29 62 W8 30.20R WORCESTER PTCLDY 33 27 78 W10 30.18R WCI 25 WESTFIELD PTCLDY 28 25 88 S5 30.22R WCI 23 PROVINCETOWN PTCLDY 43 34 70 W8 30.20R NANTUCKET CLEAR 40 32 73 W6 30.22R $$ ANZ330-335-338-340-345-350-353-355-271400- COASTAL MARINE OBSERVATIONS STATION/POSITION TIME SKY/WX TEMP WIND PRES VSBY WAVE AIR SEA DIR/SP/G HT/PER (UTC) (F) (DEG/KT/KT) (MB) (MI) (FT/S) NY HARB ENTRANCE 1300 44 44 290/ 8/ 10 1025.0 2/16 4S FIRE IS 1300 47 N/A 3/14 20S FIRE ISLAND 1200 47 49 1024.4 3/15 23SW MTP 1300 N/A 3/15 HUDSON CANYON 1300 49 54 280/ 12/ 14 1024.9 4/16 EXECUTION ROCKS 1300 43 42 200/ 4/ 4 N/A WESTERN LI SOUND 1300 42 250/ 2/ 4 N/A 0 CENTRAL LI SOUND 1200 42 44 270/ 8/ 10 N/A 1/ 3 EASTERN LI SOUND NOT AVBL ROBBINS REEF 1300 40 1023.3 $$ >>>>>>>>>>>>>>>>>>>>>>>>>>>> KEY <<<<<<<<<<<<<<<<<<<<<<<<<<< > < > SKY/WX - SKY CONDITION/PRESENT WEATHER < > TMP - TEMPERATURE IN FAHRENHEIT < > DP - DEWPOINT IN FAHRENHEIT < > RH - RELATIVE HUMIDITY IN PERCENT < > WIND - DIRECTION AND SPEED IN MPH < > PRES - MEAN SEA LEVEL PRESSURE IN INCHES OF HG < > WCI - WIND CHILL INDEX < > VSB - VISIBILITY IN MILES < > HX - HEAT INDEX < > TC - TEMPERATURE IN CELSIUS < > VRB - VARIABLE WIND DIRECTION < > < >>>>>>>>>>>>>>>>>>>>>>>>>>>> KEY <<<<<<<<<<<<<<<<<<<<<<<<<<<

USA.gov is the U.S. government's official web portal to all federal, state and local government web resources and services.